Date String (YYYY-MM-DD hh:mm:ss) UTC,Instrument flags,absolute air pressure of the measurement (hPa),sample flow rate (lpm),inlet stack bypass flow (lpm),air temperature of the measurement (°C),ambient temperature measured by the external sensor (°C),aerosol sample conditioner tube jacket temperature (°C),OPC LED temperature (°C),internal box temperature (°C),relative humidity of the measurement (%),span deviation,mass concentration of particles derived from Lorenz-Mie calculation of OPC scattering (μg/m³),mass concentration of particles derived from Lorenz-Mie calculation of OPC scattering (μg/m³),mass concentration of particles derived from Lorenz-Mie calculation of OPC scattering (μg/m³)
DateTimeUTC,F1_M11,P_M11,Q1_M11,Q2_M11,T1_M11,T2_M11,T3_M11,T4_M11,T5_M11,U1_M11,ZSPAN_M11,X2_M11,X0_M11,X1_M11
2024-06-17 08:00:00,SystemResetWarning,0820.6,4.99,000.00,030.2,029.7,000.0,038.3,032.0,029.9,0000.0,0006.87,0023.99,0005.30
2024-06-17 08:01:00,SystemResetWarning,0820.7,5.01,000.00,030.2,029.7,000.0,038.3,032.0,030.0,0000.0,0006.86,0022.90,0005.30
2024-06-17 08:02:00,SystemResetWarning,0820.7,5.01,000.00,030.3,029.8,000.0,038.4,032.0,030.1,0000.0,0006.84,0021.52,0005.30
2024-06-17 08:03:00,SystemResetWarning,0820.8,5.00,000.00,030.3,029.8,000.0,038.4,032.1,030.1,0000.0,0006.84,0021.75,0005.30
2024-06-17 08:04:00,SystemResetWarning,0820.9,5.00,000.00,030.3,029.8,000.0,038.5,032.1,030.4,0000.5,0006.84,0022.13,0005.31
2024-06-17 08:05:00,SystemResetWarning,0820.9,5.00,000.00,030.4,029.9,000.0,038.5,032.1,030.4,0001.5,0006.84,0021.77,0005.30
2024-06-17 08:06:00,SystemResetWarning,0820.8,5.00,000.00,030.4,029.9,000.0,038.5,032.2,030.2,0002.2,0006.88,0021.34,0005.31
2024-06-17 08:07:00,SystemResetWarning,0820.9,4.99,000.00,030.4,029.9,000.0,038.6,032.2,030.2,0002.1,0006.86,0021.19,0005.31
2024-06-17 08:08:00,SystemResetWarning,0820.7,5.00,000.00,030.5,030.0,000.0,038.6,032.2,030.2,0002.4,0006.87,0020.53,0005.29
2024-06-17 08:09:00,SystemResetWarning,0820.7,5.00,000.00,030.5,030.0,000.0,038.6,032.2,030.2,0001.8,0006.87,0019.62,0005.27
2024-06-17 08:10:00,SystemResetWarning,0820.5,5.00,000.00,030.5,030.0,000.0,038.6,032.2,030.0,0003.6,0006.84,0017.97,0005.27
2024-06-17 08:11:00,SystemResetWarning,0820.3,5.01,000.00,030.5,030.1,000.0,038.7,032.3,030.0,0003.4,0006.78,0016.32,0005.26
2024-06-17 08:12:00,SystemResetWarning,0820.3,5.00,000.00,030.6,030.1,000.0,038.7,032.3,030.0,0003.1,0006.75,0015.88,0005.25
2024-06-17 08:13:00,SystemResetWarning,0820.3,5.00,000.00,030.6,030.1,000.0,038.7,032.3,030.0,0002.8,0006.69,0015.56,0005.25
2024-06-17 08:14:00,SystemResetWarning,0820.4,4.99,000.00,030.6,029.3,000.0,038.8,031.9,029.9,0000.8,0006.66,0015.36,0005.24
2024-06-17 08:15:00,SystemResetWarning,0820.2,4.99,000.00,030.2,027.0,000.0,038.8,030.8,030.7,0003.0,0006.67,0015.01,0005.25
2024-06-17 08:16:00,SystemResetWarning,0820.2,5.02,000.00,029.8,026.3,000.0,038.8,030.4,031.4,0002.9,0006.66,0015.82,0005.27
2024-06-17 08:17:00,SystemResetWarning,0820.2,4.99,000.00,029.6,026.6,000.0,038.6,030.5,031.5,0002.3,0006.63,0015.91,0005.27
2024-06-17 08:18:00,SystemResetWarning,0820.3,5.00,000.00,029.6,027.0,000.0,038.5,030.7,031.4,0001.7,0006.58,0015.99,0005.29
2024-06-17 08:19:00,SystemResetWarning,0820.3,5.00,000.00,029.6,027.5,000.0,038.4,031.0,031.4,0000.6,0006.54,0015.83,0005.31
2024-06-17 08:20:00,SystemResetWarning,0820.3,5.00,000.00,029.6,027.8,000.0,038.4,031.1,031.6,0001.0,0006.53,0016.73,0005.33
2024-06-17 08:21:00,SystemResetWarning,0820.3,5.00,000.00,029.6,028.1,000.0,038.3,031.3,031.7,0000.9,0006.55,0018.05,0005.34
2024-06-17 08:22:00,SystemResetWarning,0820.3,5.00,000.00,029.7,028.4,000.0,038.3,031.4,031.6,0000.8,0006.60,0018.43,0005.36
2024-06-17 08:23:00,SystemResetWarning,0820.3,5.00,000.00,029.7,028.6,000.0,038.2,031.4,031.1,0000.6,0006.70,0018.73,0005.39
2024-06-17 08:24:00,SystemResetWarning,0820.3,5.01,000.00,029.8,028.8,000.0,038.2,031.5,031.0,0001.0,0006.75,0018.59,0005.39
2024-06-17 08:25:00,SystemResetWarning,0820.3,5.00,000.00,029.8,028.9,000.0,038.2,031.6,031.0,0000.6,0006.80,0018.60,0005.40
2024-06-17 08:26:00,SystemResetWarning,0820.3,5.00,000.00,029.9,029.1,000.0,038.2,031.6,031.1,0000.7,0006.86,0020.05,0005.40
2024-06-17 08:27:00,SystemResetWarning,0820.3,4.99,000.00,029.9,029.2,000.0,038.2,031.7,031.0,0000.0,0006.90,0019.55,0005.40
2024-06-17 08:28:00,SystemResetWarning,0820.3,4.99,000.00,029.9,029.3,000.0,038.2,031.8,030.9,0000.0,0006.90,0018.98,0005.40
2024-06-17 08:29:00,SystemResetWarning,0820.2,4.99,000.00,030.0,029.4,000.0,038.3,031.8,030.6,0000.0,0006.94,0018.62,0005.41
2024-06-17 08:30:00,SystemResetWarning,0820.2,5.01,000.00,030.0,029.4,000.0,038.3,031.8,030.3,0000.0,0006.98,0018.58,0005.42
2024-06-17 08:31:00,SystemResetWarning,0820.3,5.00,000.00,030.1,029.5,000.0,038.3,031.9,029.9,0000.0,0006.99,0019.68,0005.43
2024-06-17 08:32:00,SystemResetWarning,0820.2,5.00,000.00,030.1,029.6,000.0,038.3,031.9,029.7,0000.0,0006.99,0018.38,0005.45
2024-06-17 08:33:00,SystemResetWarning,0820.2,5.00,000.00,030.1,029.6,000.0,038.4,031.9,029.6,0000.4,0006.99,0018.20,0005.46
2024-06-17 08:34:00,SystemResetWarning,0820.2,5.00,000.00,030.2,029.7,000.0,038.4,032.0,029.6,0000.5,0007.01,0017.60,0005.48
2024-06-17 08:35:00,SystemResetWarning,0820.2,5.00,000.00,030.2,029.7,000.0,038.4,032.0,029.5,0000.4,0006.99,0017.56,0005.50
2024-06-17 08:36:00,SystemResetWarning,0820.2,5.00,000.00,030.3,029.8,000.0,038.4,032.1,029.4,0000.5,0007.01,0017.64,0005.53
2024-06-17 08:37:00,SystemResetWarning,0820.2,5.01,000.00,030.3,029.8,000.0,038.5,032.1,029.4,0000.0,0006.95,0016.40,0005.55
2024-06-17 08:38:00,SystemResetWarning,0820.2,5.00,000.00,030.3,029.8,000.0,038.5,032.1,029.4,0001.4,0006.95,0015.81,0005.56
2024-06-17 08:39:00,SystemResetWarning,0820.2,4.99,000.00,030.4,029.9,000.0,038.5,032.2,029.3,0001.7,0007.01,0015.78,0005.58
2024-06-17 08:40:00,SystemResetWarning,0820.2,4.99,000.00,030.4,029.9,000.0,038.6,032.2,029.2,0001.5,0007.06,0016.69,0005.58
2024-06-17 08:41:00,SystemResetWarning,0820.3,5.00,000.00,030.4,029.9,000.0,038.6,032.2,029.1,0001.4,0007.12,0017.25,0005.59
2024-06-17 08:42:00,SystemResetWarning,0820.3,5.02,000.00,030.5,030.0,000.0,038.6,032.3,029.0,0001.5,0007.11,0016.85,0005.61
2024-06-17 08:43:00,SystemResetWarning,0820.3,5.01,000.00,030.5,030.0,000.0,038.7,032.3,029.0,0001.4,0007.12,0016.62,0005.60
2024-06-17 08:44:00,SystemResetWarning,0820.3,4.99,000.00,030.5,030.0,000.0,038.7,032.3,029.2,0001.5,0007.13,0018.14,0005.61
2024-06-17 08:45:00,SystemResetWarning,0820.3,4.99,000.00,030.6,030.1,000.0,038.7,032.3,029.3,0001.1,0007.10,0019.02,0005.61
2024-06-17 08:46:00,SystemResetWarning,0820.3,5.00,000.00,030.6,030.1,000.0,038.7,032.4,029.4,0001.6,0007.10,0019.36,0005.60
2024-06-17 08:47:00,SystemResetWarning,0820.3,5.01,000.00,030.6,030.1,000.0,038.8,032.4,029.4,0001.1,0007.05,0019.16,0005.57
2024-06-17 08:48:00,SystemResetWarning,0820.3,5.01,000.00,030.7,030.1,000.0,038.8,032.4,029.3,0000.0,0007.07,0019.77,0005.56
2024-06-17 08:49:00,SystemResetWarning,0820.3,4.99,000.00,030.7,030.2,000.0,038.8,032.4,029.5,0000.0,0007.08,0020.13,0005.56
2024-06-17 08:50:00,SystemResetWarning,0820.4,4.99,000.00,030.7,030.2,000.0,038.9,032.4,029.1,0000.0,0007.11,0020.77,0005.55
2024-06-17 08:51:00,SystemResetWarning,0820.4,4.99,000.00,030.7,029.9,000.0,038.9,032.3,029.0,0000.0,0007.10,0020.78,0005.55
2024-06-17 08:52:00,SystemResetWarning,0820.3,5.01,000.00,030.4,027.7,000.0,039.0,031.3,030.1,0000.0,0007.07,0020.11,0005.53
2024-06-17 08:53:00,SystemResetWarning,0820.3,5.01,000.00,030.0,026.4,000.0,038.9,030.6,031.0,0000.0,0007.03,0020.42,0005.51
2024-06-17 08:54:00,SystemResetWarning,0820.3,5.01,000.00,029.8,026.5,000.0,038.8,030.5,031.5,0000.0,0007.02,0021.05,0005.50
2024-06-17 08:55:00,SystemResetWarning,0820.4,5.00,000.00,029.7,026.9,000.0,038.7,030.7,031.7,0000.0,0007.03,0020.64,0005.50
2024-06-17 08:56:00,SystemResetWarning,0820.4,5.00,000.00,029.7,027.3,000.0,038.6,031.0,031.8,0000.0,0006.98,0020.59,0005.49
2024-06-17 08:57:00,SystemResetWarning,0820.4,5.00,000.00,029.7,027.7,000.0,038.5,031.2,031.9,0000.0,0006.98,0020.80,0005.47
2024-06-17 08:58:00,SystemResetWarning,0820.4,5.00,000.00,029.7,028.1,000.0,038.4,031.3,031.9,0000.0,0006.99,0021.18,0005.46
2024-06-17 08:59:00,SystemResetWarning,0820.4,5.00,000.00,029.8,028.4,000.0,038.4,031.4,031.9,0000.0,0007.04,0021.24,0005.47
